[[[{"header":{"parameterUnit":"kt","parameterCategory":2,"dx":1,"dy":1,"la1":30.253999710083008,"la2":30.299108505249023,"lo1":-89.0895004272461,"lo2":-89.04439544677734,"nx":28,"ny":28,"refTime":"2022-10-19T21:00:00:Z","depth":0,"parameterNumber":1,"parameterNumberName":"U-component_of_WINDS"},"data":[-0.1217,-0.1273,-0.1273,-0.1337,-0.1348,-0.1391,-0.1407,-0.1428,-0.1444,-0.1495,-0.1525,-0.1531,-0.1548,-0.1583,-0.1615,-0.1617,-0.1632,-0.1651,-0.1651,-0.1566,-0.1554,-0.1543,-0.1531,-0.1653,-0.1653,-0.1739,-0.174,-0.1741,-0.1154,-0.1166,-0.12,-0.1233,-0.1262,-0.1244,-0.1269,-0.1294,-0.1334,-0.1354,-0.1383,-0.1428,-0.1464,-0.1475,-0.151,-0.1535,-0.153,-0.1545,-0.1545,-0.1548,-0.1457,-0.1444,-0.1549,-0.1549,-0.1549,-0.1549,-0.1549,-0.1549,-0.104,-0.1073,-0.1094,-0.1131,-0.1147,-0.1169,-0.1201,-0.1208,-0.1241,-0.1278,-0.1272,-0.1316,-0.1337,-0.1379,-0.1394,-0.1428,-0.1412,-0.1429,-0.1434,-0.1439,-0.1446,-0.1324,-0.1434,-0.1433,-0.1433,-0.1433,-0.1433,0,-0.0958,-0.0956,-0.0989,-0.1022,-0.1048,-0.1074,-0.1097,-0.1116,-0.1114,-0.1141,-0.1181,-0.1204,-0.1249,-0.1286,-0.1319,-0.1331,-0.1317,-0.1315,-0.1327,-0.1333,-0.1333,-0.1336,-0.119,-0.1313,-0.1312,-0.1311,-0.131,-0.131,-0.0845,-0.0883,-0.0905,-0.0928,-0.0941,-0.0978,-0.1,-0.0995,-0.1018,-0.1046,-0.1075,-0.1112,-0.1142,-0.1205,-0.1214,-0.1248,-0.1242,-0.1289,-0.1247,-0.125,-0.1246,-0.1245,-0.125,-0.1299,-0.13,-0.1301,-0.1302,0,-0.0782,-0.0784,-0.0843,-0.0861,-0.0867,-0.0907,-0.0923,-0.0955,-0.0959,-0.1004,-0.1014,-0.1021,-0.1059,-0.1061,-0.1105,-0.1105,-0.1171,-0.1163,-0.1164,-0.1163,-0.1208,-0.1205,-0.1347,-0.1366,-0.1236,-0.1238,-0.1239,0,-0.0688,-0.0738,-0.0738,-0.0772,-0.0827,-0.0821,-0.0876,-0.0885,-0.0903,-0.0938,-0.0922,-0.0956,-0.0952,-0.0986,-0.0985,-0.1039,-0.1047,-0.1051,-0.1051,-0.1054,-0.1054,-0.1069,-0.1065,-0.1045,-0.1045,-0.1044,-0.1043,0,-0.0591,-0.0649,-0.0704,-0.0718,-0.0743,-0.0769,-0.0781,-0.0801,-0.0823,-0.0851,-0.0865,-0.0898,-0.0917,-0.0942,-0.0942,-0.0914,-0.1007,-0.0968,-0.1012,-0.1012,-0.1035,-0.1034,-0.1157,-0.1043,-0.1042,-0.1042,-0.1042,0,-0.0517,-0.0546,-0.0625,-0.0646,-0.0662,-0.0697,-0.073,-0.0761,-0.0784,-0.0786,-0.0808,-0.0799,-0.0845,-0.0806,-0.087,-0.0833,-0.0853,-0.086,-0.0863,-0.087,-0.0828,-0.09,-0.1014,-0.1028,-0.0872,-0.0871,-0.087,0,-0.0407,-0.0487,-0.0484,-0.0559,-0.0597,-0.0577,-0.0616,-0.0637,-0.0644,-0.0676,-0.0683,-0.072,-0.0692,-0.0704,-0.0735,-0.0744,-0.0791,-0.0737,-0.0787,-0.0788,-0.0784,-0.0888,-0.0907,-0.0989,-0.0852,-0.0854,-0.0855,0,-0.0322,-0.0353,-0.0367,-0.0383,-0.041,-0.0442,-0.0487,-0.0523,-0.0545,-0.057,-0.0609,-0.066,-0.0641,-0.0662,-0.0658,-0.069,-0.0759,-0.0666,-0.0666,-0.0685,-0.0842,-0.0859,-0.0873,-0.0749,-0.0751,-0.0753,-0.0841,0,-0.0213,-0.0254,-0.029,-0.0326,-0.035,-0.0397,-0.04,-0.0425,-0.0419,-0.0425,-0.0481,-0.0499,-0.0536,-0.0551,-0.0546,-0.0619,-0.0608,-0.0587,-0.0553,-0.062,-0.0649,-0.0661,-0.0509,-0.0508,-0.0507,-0.0506,0,0,-0.0109,-0.0167,-0.0163,-0.0207,-0.0228,-0.0208,-0.0258,-0.0276,-0.0312,-0.0327,-0.0306,-0.0383,-0.0399,-0.0467,-0.0488,-0.0503,-0.0517,-0.0493,-0.0587,-0.0596,-0.0605,-0.0636,-0.0648,-0.0505,-0.0504,-0.0504,-0.0504,0,-0.0071,-0.0087,-0.0136,-0.0154,-0.0181,-0.0185,-0.0197,-0.022,-0.0226,-0.0281,-0.0265,-0.0299,-0.036,-0.038,-0.0398,-0.0484,-0.0471,-0.0495,-0.0541,-0.0578,-0.0588,-0.0597,-0.063,-0.0642,-0.0502,-0.0502,-0.0502,0,0.001,-0.0007,-0.0031,-0.0076,-0.0094,-0.0133,-0.0096,-0.0139,-0.0168,-0.0146,-0.0201,-0.0212,-0.0238,-0.0301,-0.033,-0.0313,-0.043,-0.0393,-0.0399,-0.0403,-0.0439,-0.0451,-0.0462,-0.032,-0.0319,-0.0319,0,0,0.0043,0.0006,-0.0012,-0.0068,-0.008,-0.0088,-0.0109,-0.0106,-0.013,-0.0139,-0.0153,-0.0177,-0.0213,-0.0237,-0.027,-0.0339,-0.0345,-0.0371,-0.0379,-0.0386,-0.0394,-0.0432,-0.0444,-0.0316,-0.0316,-0.0316,0,0,0.0059,0.0036,0.0046,-0.002,-0.0043,-0.0065,-0.0099,-0.0088,-0.0119,-0.0114,-0.0111,-0.0117,-0.0176,-0.0188,-0.0155,-0.0258,-0.0223,-0.0231,-0.0249,-0.026,-0.0269,-0.0266,-0.0122,0,0,0,0,0,0.0096,0.0039,0.0048,0.0037,-0.0021,-0.007,-0.0077,-0.0076,-0.0051,-0.0079,-0.0088,-0.0073,-0.0169,-0.014,-0.0152,-0.0189,-0.0285,-0.029,-0.0296,-0.0335,-0.0346,-0.0356,0,0,0,0,0,0,0.0091,0.0077,0.005,0.0026,0.0013,-0.0068,-0.0026,-0.0027,-0.0048,-0.0045,-0.0071,-0.0074,-0.0074,-0.0134,-0.0144,-0.018,-0.0118,-0.0287,-0.0292,-0.0296,-0.0339,-0.0348,-0.0356,0,0,0,0,0,0.0088,0.0076,-0.0017,0.0027,0.0015,0.0003,-0.0024,-0.0025,-0.0041,-0.0057,-0.0059,-0.0038,-0.0075,-0.0084,-0.014,-0.0176,-0.0111,-0.0115,-0.029,-0.0294,-0.0297,-0.0343,0,0,0,0,0,0,0.0085,0.0075,-0.002,-0.0023,0.0048,0.0008,0.0002,-0.0022,-0.0052,-0.0054,-0.0023,-0.002,-0.0076,-0.0083,-0.009,-0.0174,-0.0105,-0.0109,-0.0111,-0.0293,-0.0296,-0.0298,0,0,0,0,0,0,0.0081,0.0072,-0.0021,0.0005,0.0005,0.0012,0.0006,-0.0041,-0.0052,-0.0017,-0.0015,-0.0022,-0.0066,-0.0083,-0.0088,-0.0163,-0.01,-0.0104,-0.0107,-0.0108,-0.0295,-0.0298,0,0,0,0,0,0,0.0077,0.007,0.0006,0.0006,0.0006,-0.0032,-0.003,-0.009,-0.0029,-0.0015,-0.0024,-0.0021,-0.0066,-0.0071,-0.0087,-0.0159,-0.0162,-0.01,-0.0103,-0.0105,-0.0106,0,0,0,0,0,0,0,0.0074,0.0127,0.0001,0.0006,0.0006,-0.0054,-0.0055,-0.0056,-0.0029,-0.0027,-0.0024,-0.0022,-0.0079,-0.0083,-0.0087,-0.0157,0,0,-0.01,-0.0102,0,0,0,0,0,0,0,0,0.013,0.0128,0.0,-0.0,-0.0001,-0.0054,-0.0055,-0.0056,-0.0028,-0.0027,-0.0025,-0.0023,-0.008,-0.0083,-0.0087,0,0,0,0,0,0,0,0,0,0,0,0,0,0,0,0.0,-0.0,0,-0.0055,-0.0055,-0.0056,-0.0028,-0.0027,-0.0025,-0.0024,-0.0081,-0.0083,-0.0086,0,0,0,0,0,0,0,0,0,0,0,0,0,0,0,0,0,0,0,0,0,0,0,0,0,0,0,0,0,0,0,0,0,0,0,0,0,0,0,0,0,0,0,0,0,0,0,0,0,0,0,0,0,0,0,0,0,0,0,0,0,0,0,0,0,0,0,0,0]}],[{"header":{"parameterUnit":"kt","parameterCategory":2,"dx":1,"dy":1,"la1":30.253999710083008,"la2":30.299108505249023,"lo1":-89.0895004272461,"lo2":-89.04439544677734,"nx":28,"ny":28,"refTime":"2022-10-19T21:00:00:Z","depth":0,"parameterNumber":2,"parameterNumberName":"V-component_of_WINDS"},"data":[-6.1237,-6.1298,-6.1302,-6.1373,-6.1387,-6.1436,-6.1454,-6.1478,-6.1497,-6.1554,-6.1586,-6.1594,-6.1612,-6.165,-6.1685,-6.1687,-6.1703,-6.1723,-6.1723,-6.163,-6.1617,-6.1605,-6.1593,-6.1725,-6.1726,-6.182,-6.1821,-6.1821,-6.1173,-6.119,-6.1227,-6.1267,-6.1299,-6.1282,-6.1311,-6.1339,-6.1381,-6.1404,-6.1436,-6.1485,-6.1522,-6.1533,-6.157,-6.1597,-6.1591,-6.1607,-6.1607,-6.1611,-6.1511,-6.1498,-6.1612,-6.1612,-6.1612,-6.1612,-6.1612,-6.1612,-6.1059,-6.1095,-6.1121,-6.1161,-6.1181,-6.1206,-6.124,-6.1249,-6.1284,-6.1324,-6.1318,-6.1365,-6.1387,-6.143,-6.1444,-6.1481,-6.1463,-6.1481,-6.1486,-6.1492,-6.1499,-6.137,-6.1486,-6.1485,-6.1485,-6.1485,-6.1484,0,-6.0977,-6.0979,-6.1014,-6.1051,-6.108,-6.1108,-6.1134,-6.1154,-6.1153,-6.1181,-6.1223,-6.1246,-6.1293,-6.1331,-6.1364,-6.1375,-6.1359,-6.1356,-6.1369,-6.1376,-6.1379,-6.1382,-6.1224,-6.1353,-6.1352,-6.1351,-6.135,-6.135,-6.0866,-6.0905,-6.0932,-6.0957,-6.0971,-6.1009,-6.1033,-6.1028,-6.1053,-6.1082,-6.1112,-6.115,-6.1181,-6.1244,-6.1251,-6.1284,-6.1278,-6.1328,-6.1282,-6.1287,-6.1283,-6.1283,-6.1288,-6.1338,-6.1339,-6.1341,-6.1342,0,-6.0804,-6.0808,-6.0869,-6.089,-6.0897,-6.0937,-6.0955,-6.0988,-6.0992,-6.1038,-6.1048,-6.1053,-6.1093,-6.1091,-6.1134,-6.1132,-6.1201,-6.119,-6.1195,-6.1194,-6.1242,-6.1239,-6.1389,-6.141,-6.1269,-6.127,-6.1271,0,-6.0712,-6.0762,-6.0766,-6.0801,-6.0857,-6.0851,-6.0906,-6.0915,-6.0933,-6.0969,-6.0951,-6.0985,-6.0977,-6.1011,-6.1007,-6.1062,-6.1069,-6.1072,-6.1071,-6.1076,-6.1076,-6.109,-6.1086,-6.1062,-6.1062,-6.1061,-6.106,0,-6.0618,-6.0676,-6.0732,-6.0746,-6.0772,-6.0798,-6.081,-6.0829,-6.0851,-6.0878,-6.0893,-6.0923,-6.0941,-6.0965,-6.0962,-6.0932,-6.1027,-6.0984,-6.103,-6.1031,-6.1054,-6.1053,-6.1184,-6.1059,-6.1059,-6.1059,-6.1059,0,-6.0545,-6.0574,-6.0653,-6.0676,-6.0691,-6.0726,-6.0759,-6.0788,-6.081,-6.0811,-6.0831,-6.0819,-6.0864,-6.0823,-6.0885,-6.0848,-6.0866,-6.0872,-6.0875,-6.0882,-6.0837,-6.0916,-6.1037,-6.1052,-6.0885,-6.0884,-6.0882,0,-6.0438,-6.0518,-6.0514,-6.0588,-6.0626,-6.0605,-6.0644,-6.0663,-6.0667,-6.0699,-6.0702,-6.0737,-6.0705,-6.0716,-6.0747,-6.0752,-6.0801,-6.0745,-6.0792,-6.0794,-6.0792,-6.0903,-6.0923,-6.101,-6.0864,-6.0866,-6.0867,0,-6.0356,-6.0387,-6.0401,-6.0417,-6.0441,-6.0471,-6.0514,-6.0548,-6.057,-6.059,-6.0628,-6.0674,-6.0654,-6.067,-6.0663,-6.0695,-6.0768,-6.0668,-6.0668,-6.0689,-6.0852,-6.0873,-6.0887,-6.0755,-6.0758,-6.0759,-6.0852,0,-6.0253,-6.0292,-6.0326,-6.036,-6.0382,-6.0426,-6.0426,-6.0449,-6.0441,-6.0445,-6.0498,-6.051,-6.0542,-6.0555,-6.0546,-6.0619,-6.0607,-6.0584,-6.0546,-6.0617,-6.0648,-6.066,-6.05,-6.0499,-6.0498,-6.0497,0,0,-6.0152,-6.0207,-6.02,-6.0243,-6.0262,-6.0239,-6.0287,-6.0301,-6.0331,-6.0344,-6.0323,-6.039,-6.04,-6.0464,-6.0486,-6.0496,-6.051,-6.0485,-6.0582,-6.0591,-6.06,-6.0633,-6.0646,-6.0496,-6.0495,-6.0495,-6.0495,0,-6.0115,-6.0128,-6.0175,-6.0191,-6.0214,-6.0215,-6.0226,-6.0244,-6.0248,-6.0298,-6.0278,-6.0308,-6.0359,-6.0375,-6.039,-6.0476,-6.046,-6.0485,-6.0535,-6.0572,-6.0583,-6.0592,-6.0627,-6.0639,-6.0492,-6.0492,-6.0492,0,-6.0037,-6.0051,-6.0073,-6.0113,-6.0127,-6.0163,-6.0124,-6.0162,-6.0189,-6.016,-6.021,-6.0216,-6.0235,-6.0293,-6.0319,-6.03,-6.0415,-6.0376,-6.0382,-6.0385,-6.0421,-6.0434,-6.0445,-6.0295,-6.0294,-6.0294,0,0,-6.0005,-6.004,-6.0053,-6.0105,-6.0115,-6.0117,-6.0135,-6.0129,-6.0147,-6.0155,-6.0163,-6.018,-6.021,-6.023,-6.0258,-6.0321,-6.0326,-6.0352,-6.0361,-6.0369,-6.0376,-6.0414,-6.0427,-6.0291,-6.0291,-6.0291,0,0,-5.999,-6.0007,-5.9996,-6.0057,-6.0076,-6.009,-6.0122,-6.0108,-6.0133,-6.0128,-6.0117,-6.0121,-6.0175,-6.0181,-6.0148,-6.0245,-6.0207,-6.0214,-6.0239,-6.0251,-6.026,-6.0259,-6.0109,0,0,0,0,0,-5.9952,-6.0005,-5.9995,-6.0005,-6.0053,-6.0096,-6.0102,-6.0096,-6.007,-6.0096,-6.01,-6.008,-6.0162,-6.0133,-6.0142,-6.0179,-6.0259,-6.0265,-6.027,-6.0317,-6.033,-6.034,0,0,0,0,0,0,-5.9956,-5.9969,-5.9994,-6.0011,-6.0022,-6.0094,-6.005,-6.005,-6.0067,-6.0063,-6.008,-6.008,-6.0074,-6.0127,-6.0136,-6.0172,-6.0106,-6.0261,-6.0266,-6.0271,-6.0322,-6.0332,-6.034,0,0,0,0,0,-5.9959,-5.9969,-6.0048,-6.001,-6.0019,-6.0024,-6.0048,-6.0047,-6.0061,-6.0067,-6.0067,-6.0054,-6.0076,-6.0082,-6.0132,-6.0168,-6.01,-6.0103,-6.0265,-6.0268,-6.0272,-6.0327,0,0,0,0,0,0,-5.9962,-5.9969,-6.005,-6.0052,-5.999,-6.002,-6.0024,-6.0045,-6.0063,-6.0064,-6.0041,-6.0037,-6.0077,-6.0082,-6.0087,-6.0167,-6.0095,-6.0099,-6.0101,-6.0268,-6.027,-6.0273,0,0,0,0,0,0,-5.9963,-5.9971,-6.0051,-6.0026,-6.0025,-6.0016,-6.002,-6.006,-6.0064,-6.0036,-6.0034,-6.0039,-6.0069,-6.0082,-6.0086,-6.0149,-6.0092,-6.0095,-6.0097,-6.0098,-6.027,-6.0272,0,0,0,0,0,0,-5.9966,-5.9973,-6.0025,-6.0025,-6.0024,-6.0052,-6.0051,-6.01,-6.0044,-6.0035,-6.0038,-6.0036,-6.0069,-6.0073,-6.0085,-6.0147,-6.0149,-6.0092,-6.0094,-6.0095,-6.0096,0,0,0,0,0,0,0,-5.9969,-5.9926,-6.0035,-6.0024,-6.0023,-6.0076,-6.0077,-6.0077,-6.0043,-6.0041,-6.0039,-6.0037,-6.0074,-6.0077,-6.0081,-6.0145,0,0,-6.0091,-6.0093,0,0,0,0,0,0,0,0,-5.9923,-5.9926,-6.0035,-6.0036,-6.0036,-6.0076,-6.0077,-6.0077,-6.0043,-6.0041,-6.0039,-6.0038,-6.0075,-6.0078,-6.008,0,0,0,0,0,0,0,0,0,0,0,0,0,0,0,-6.0035,-6.0036,0,-6.0076,-6.0077,-6.0077,-6.0043,-6.0041,-6.004,-6.0038,-6.0076,-6.0078,-6.008,0,0,0,0,0,0,0,0,0,0,0,0,0,0,0,0,0,0,0,0,0,0,0,0,0,0,0,0,0,0,0,0,0,0,0,0,0,0,0,0,0,0,0,0,0,0,0,0,0,0,0,0,0,0,0,0,0,0,0,0,0,0,0,0,0,0,0,0,0]}]]]